User: anonymous
Location: Columbia
(38.9520°N, 92.3340°W)
Time: 21:21:31
(UTC-05:00)
Language:

FENGYUN 3A - Orbit

View from above orbital plane
View from above orbital plane
View from above satellite
View from above satellite

Ground track
Ground track

The orbit data is extracted from the following two-line orbital elements,

1 32958U 08026A   14274.56652789  .00000089  00000-0  62365-4 0  4144
2 32958 098.5434 329.7565 0008874 270.6985 089.3177 14.19473856328931
Epoch (UTC): 01 October 2014 13:35:48
Eccentricity: 0.0008874
inclination: 98.5434°
perigee height: 821 km
apogee height: 833 km
right ascension of ascending node: 329.7565°
argument of perigee: 270.6985°
revolutions per day: 14.19473856
mean anomaly at epoch: 89.3177°
orbit number at epoch: 32893

The dashed part of the orbit path shows where the satellite is in the earth's shadow,  

DLR